K6BPM Weather Reports


time (UTC)temp
C
wind
direction
speed
KPH
gust
KPH
rain 1hr
cm
rain 24hr
cm
rain mn
cm
humidity
%
barometer
mb
20260507041039 16 0.0 0.0 0.00 0.00 0.00 32 1015.1
20260507040016 16 0.0 0.0 0.00 0.00 0.00 32 1014.8
20260507035016 16 0.0 0.0 0.00 0.00 0.00 33 1014.5
20260507034057 16 0.0 0.0 0.00 0.00 0.00 33 1014.4
20260507033017 16 0.0 0.0 0.00 0.00 0.00 35 1014.5
20260507032017 16 0.0 0.0 0.00 0.00 0.00 36 1014.4
20260507031017 17 0.0 0.0 0.00 0.00 0.00 39 1014.4
20260507030016 17 0.0 0.0 0.00 0.00 0.00 45 1014.3
20260507025038 17 0.0 0.0 0.00 0.00 0.00 49 1014.2
20260507024016 17 0.0 0.0 0.00 0.00 0.00 50 1014.3
20260507023017 17 0.0 0.0 0.00 0.00 0.00 52 1014.2
20260507022036 18 0.0 0.0 0.00 0.00 0.00 52 1014.2
20260507021017 18 0.0 0.0 0.00 0.00 0.00 53 1014.2
20260507020017 18 0.0 0.0 0.00 0.00 0.00 54 1014.3
20260507015017 18 0.0 0.0 0.00 0.00 0.00 55 1014.3
20260507014017 18 0.0 0.0 0.00 0.00 0.00 55 1014.3
20260507013036 19 0.0 0.0 0.00 0.00 0.00 56 1014.4
20260507012016 19 0.0 0.0 0.00 0.00 0.00 57 1014.4
20260507011017 20 0.0 0.0 0.00 0.00 0.00 57 1014.5
20260507010016 20 0.0 0.0 0.00 0.00 0.00 57 1014.4
20260507005016 20 0.0 0.0 0.00 0.00 0.00 57 1014.4
20260507004016 20 0.0 0.0 0.00 0.00 0.00 58 1014.6
20260507003016 20 0.0 0.0 0.00 0.00 0.00 59 1014.6
20260507002016 20 0.0 0.0 0.00 0.00 0.00 58 1014.6
20260507001017 21 0.0 0.0 0.00 0.00 0.00 58 1014.6
20260507000017 21 0.0 0.0 0.00 0.00 0.00 58 1014.7
20260506235036 21 0.0 1.6 0.00 0.00 0.00 58 1014.6
20260506234015 21 0.0 1.6 0.00 0.00 0.00 56 1014.8
20260506233016 21 0.0 1.6 0.00 0.00 0.00 56 1014.8
20260506232017 21 0.0 3.2 0.00 0.00 0.00 56 1014.9
20260506231017 21 0.0 3.2 0.00 0.00 0.00 56 1015.1
20260506230017 22 0.0 3.2 0.00 0.00 0.00 56 1015.3
20260506225017 22 0.0 4.8 0.00 0.00 0.00 56 1015.3
20260506224018 22 0.0 3.2 0.00 0.00 0.00 55 1015.6
20260506223018 22 0.0 3.2 0.00 0.00 0.00 54 1015.8
20260506222018 22 0.0 4.8 0.00 0.00 0.00 55 1016.1
20260506221037 22 0.0 0.0 0.00 0.00 0.00 55 1016.2
20260506220019 21 0.0 3.2 0.00 0.00 0.00 55 1016.2
20260506215017 21 0.0 1.6 0.00 0.00 0.00 55 1016.3
20260506214018 21 0.0 3.2 0.00 0.00 0.00 56 1016.4
20260506213018 21 0.0 6.4 0.00 0.00 0.00 56 1016.5
20260506212018 20 0.0 3.2 0.00 0.00 0.00 56 1016.6
20260506211018 20 0.0 4.8 0.00 0.00 0.00 56 1016.7
20260506210017 20 0.0 3.2 0.00 0.00 0.00 56 1016.8
20260506205018 20 0.0 4.8 0.00 0.00 0.00 56 1016.8
20260506204018 20 0.0 3.2 0.00 0.00 0.00 56 1016.8
20260506203018 21 0.0 6.4 0.00 0.00 0.00 56 1016.8
20260506132018 12 0.0 0.0 0.00 0.00 0.00 27 1016.2
20260506131017 12 0.0 0.0 0.00 0.00 0.00 27 1016.1
20260506130018 12 0.0 0.0 0.00 0.00 0.00 27 1016.1
20260506125017 12 0.0 0.0 0.00 0.00 0.00 27 1015.9
20260506124017 12 0.0 0.0 0.00 0.00 0.00 27 1015.9
20260506123039 12 0.0 0.0 0.00 0.00 0.00 27 1015.9
20260506122019 12 0.0 0.0 0.00 0.00 0.00 27 1015.9
20260506121017 12 0.0 0.0 0.00 0.00 0.00 27 1015.9
20260506120037 12 0.0 0.0 0.00 0.00 0.00 26 1015.9
20260506115018 12 0.0 0.0 0.00 0.00 0.00 26 1016.0
20260506114018 12 0.0 0.0 0.00 0.00 0.00 26 1016.0
20260506113017 12 0.0 0.0 0.00 0.00 0.00 26 1015.9
20260506112037 12 0.0 0.0 0.00 0.00 0.00 26 1016.0
20260506111037 12 0.0 0.0 0.00 0.00 0.00 26 1015.9
20260506110017 12 0.0 0.0 0.00 0.00 0.00 26 1015.8
20260506105019 12 0.0 0.0 0.00 0.00 0.00 26 1015.7
20260506104017 12 0.0 0.0 0.00 0.00 0.00 26 1015.6
20260506103017 12 0.0 0.0 0.00 0.00 0.00 26 1015.5
20260506102017 12 0.0 0.0 0.00 0.00 0.00 26 1015.5
20260506101057 12 0.0 0.0 0.00 0.00 0.00 26 1015.5
20260506100017 12 0.0 0.0 0.00 0.00 0.00 26 1015.6
20260506095057 12 0.0 0.0 0.00 0.00 0.00 26 1015.5
20260506094017 12 0.0 0.0 0.00 0.00 0.00 26 1015.6
20260506093015 12 0.0 0.0 0.00 0.00 0.00 26 1015.5
20260506092016 12 0.0 0.0 0.00 0.00 0.00 26 1015.6
20260506091017 12 0.0 0.0 0.00 0.00 0.00 26 1015.6
20260506090020 12 0.0 0.0 0.00 0.00 0.00 26 1015.7
20260506085020 12 0.0 0.0 0.00 0.00 0.00 26 1015.8
20260506084026 12 0.0 0.0 0.00 0.00 0.00 26 1016.0
20260506083021 12 0.0 0.0 0.00 0.00 0.00 26 1016.0
20260506082026 12 0.0 0.0 0.00 0.00 0.00 26 1016.1
20260506081025 12 0.0 0.0 0.00 0.00 0.00 26 1016.0
20260506073018 13 0.0 0.0 0.00 0.00 0.00 27 1015.9
20260506072017 13 0.0 0.0 0.00 0.00 0.00 27 1015.7
20260506071018 13 0.0 0.0 0.00 0.00 0.00 27 1015.5
20260506062019 14 0.0 0.0 0.00 0.00 0.00 30 1015.1
20260506061059 14 0.0 0.0 0.00 0.00 0.00 31 1015.0
20260506051017 15 0.0 0.0 0.00 0.00 0.00 45 1014.6
20260506045038 16 0.0 0.0 0.00 0.00 0.00 56 1014.3
20260506044017 16 0.0 0.0 0.00 0.00 0.00 59 1014.1
20260506043018 16 0.0 0.0 0.00 0.00 0.00 58 1014.1
20260506042018 16 0.0 0.0 0.00 0.00 0.00 58 1013.9